Location: Overspoor
(51.4747°N, 5.6641°E)
Time: 09:01:59
(UTC+02:00)

NANOSAT C BR1 - Pass Details

Date: 08 July 2022
Orbit: 584 x 599 km, 98.0° (Epoch: 07 August)

Event Time Altitude Azimuth Distance (km) Brightness Sun altitude
Rises 04:10:37 0° 12° (NNE) 2,856 ? -9.2°
Reaches altitude 10° 04:12:48 10° 10° (N) 1,950 ? -9.0°
Maximum altitude 04:17:01 70° 287° (WNW) 641 ? -8.6°
Enters shadow 04:21:12 10° 204° (SSW) 1,937 ? -8.3°
